User: anonymous   Login
Location: Montauk Point State Park
(41.0718°N, 71.8593°W)
Time: 02:29:55
(UTC-04:00)
Language:

Cosmos 1844 - Orbit

View from above orbital plane
View from above orbital plane
View from above satellite
View from above satellite

Ground track
Ground track

The orbit data is extracted from the following two-line orbital elements,

1 17973U 87041A   16239.78222924  .00000323  00000-0  19427-3 0  9998
2 17973  70.8995 174.0321 0032064 210.7296 149.1949 14.14037521511526
Epoch (UTC): 26 August 2016 18:46:24
Eccentricity: 0.0032064
inclination: 70.8995°
perigee height: 822 km
apogee height: 869 km
right ascension of ascending node: 174.0321°
argument of perigee: 210.7296°
revolutions per day: 14.14037521
mean anomaly at epoch: 149.1949°
orbit number at epoch: 51152

The dashed part of the orbit path shows where the satellite is in the earth's shadow,  

DLR